Location: Fontevrault
(47.1823°N, 0.0493°E)
Time: 15:14:02
(UTC+00:00)

Cosmos 1674 - Pass Details

Date: 16 June 2021
Orbit: 494 x 514 km, 82.5° (Epoch: 04 August)

Event Time Altitude Azimuth Distance (km) Brightness Sun altitude
Exits shadow 21:57:06 - 211° (SSW) 1,934 5.3 -14.1°
Reaches altitude 10° 21:57:43 10° 214° (SW) 1,697 5.0 -14.2°
Maximum altitude 22:01:12 39° 284° (WNW) 764 3.9 -14.5°
Drops below altitude 10° 22:04:43 10° 355° (N) 1,704 6.4 -14.8°
Sets 22:06:57 0° 3° (N) 2,591 7.4 -14.9°
